Tracking 30743 objects as of 20-Jun-2025
HD Live streaming from Space Station
objects crossing your sky now

ONEWEB-0327

Track ONEWEB-0327 now!
10-day predictions
ONEWEB-0327 is classified as:


NORAD ID: 49196
Int'l Code: 2021-083L
Perigee: 1,195.7 km
Apogee: 1,198.0 km
Inclination: 87.9 °
Period: 109.2 minutes
Semi major axis: 7567 km
RCS: Unknown
Launch date: September 14, 2021
Source: United Kingdom (UK)
Launch site: TYURATAM MISSILE AND SPACE COMPLEX (TTMTR)
Your satellite tracking list
Your tracking list is empty




NASA's NSSDC Master Catalog

Two Line Element Set (TLE):
1 49196U 21083L   25170.16147494  .00000060  00000-0  11935-3 0  9992
2 49196  87.9145  47.6245 0001540  75.2071 284.9231 13.18686843182171
Source of the keplerian elements: AFSPC